Tracking 28565 objects as of 3-Mar-2024
HD Live streaming from Space Station
objects crossing your sky now

CZ-4 DEB

Track CZ-4 DEB now!
10-day predictions


NORAD ID: 32473
Int'l Code: 2007-042C
Perigee: 649.3 km
Apogee: 792.6 km
Inclination: 98.0 °
Period: 99.1 minutes
Semi major axis: 7091 km
RCS: 0.0013 m2 (small)
Launch date: September 19, 2007
Source: People's Republic of China (PRC)
Launch site: Taiyaun Space Center, China (TSC)

Note: This is SATELLITE DEBRIS
Your satellite tracking list
Your tracking list is empty




NASA's NSSDC Master Catalog

Two Line Element Set (TLE):
1 32473U 07042C   24061.80934020  .00003602  00000-0  81532-3 0  9994
2 32473  98.0044  92.0841 0101006 336.3505  23.3066 14.53641941856628
Source of the keplerian elements: AFSPC